SAS427 ENGM-LFPG

Flight info

Callsign SAS427
Flight time N/A
Altitude 38000
Route VIPPA DCT DOROR DCT WOODY/N0443F390 N872 NIK UY131 NILEM DCT MOPIL
Aircraft A20N/M-SDE2E3FGHIRWXY/LB1

Departure

Time 2026-05-05 21:25
Airport Oslo-Gardermoen International Airport (ENGM)

Arrival

Time N/A
Airport Charles de Gaulle International Airport (LFPG)
Time Latitude Longitude Altitude Speed Heading
2026-05-05 20:58 60.19563 11.09425 681 ft 0 kts 197°
2026-05-05 21:13 60.19567 11.09427 681 ft 1 kts 197°
2026-05-05 21:14 60.19574 11.09432 681 ft 1 kts 197°
2026-05-05 21:14 60.19581 11.09436 681 ft 1 kts 197°
2026-05-05 21:14 60.19589 11.09441 681 ft 1 kts 197°
2026-05-05 21:14 60.19596 11.09445 679 ft 1 kts 197°
2026-05-05 21:15 60.19604 11.09449 677 ft 1 kts 197°
2026-05-05 21:15 60.19615 11.09456 677 ft 2 kts 197°
2026-05-05 21:15 60.19629 11.09465 675 ft 2 kts 197°
2026-05-05 21:15 60.19643 11.09477 675 ft 2 kts 222°
2026-05-05 21:16 60.19652 11.09500 678 ft 2 kts 249°
2026-05-05 21:16 60.19656 11.09529 679 ft 2 kts 276°
2026-05-05 21:16 60.19655 11.09535 679 ft 0 kts 282°
2026-05-05 21:19 60.19656 11.09535 679 ft 0 kts 282°
2026-05-05 21:19 60.19656 11.09533 679 ft 1 kts 282°
2026-05-05 21:19 60.19660 11.09498 679 ft 4 kts 284°
2026-05-05 21:20 60.19670 11.09420 681 ft 7 kts 285°
2026-05-05 21:20 60.19689 11.09309 680 ft 10 kts 297°
2026-05-05 21:20 60.19714 11.09167 679 ft 13 kts 287°
2026-05-05 21:20 60.19742 11.08972 678 ft 16 kts 286°
2026-05-05 21:21 60.19772 11.08743 677 ft 7 kts 272°
2026-05-05 21:21 60.19743 11.08656 677 ft 12 kts 204°
2026-05-05 21:21 60.19648 11.08602 677 ft 16 kts 195°
2026-05-05 21:21 60.19533 11.08538 679 ft 17 kts 195°
2026-05-05 21:22 60.19413 11.08467 680 ft 19 kts 196°
2026-05-05 21:22 60.19253 11.08376 679 ft 27 kts 196°
2026-05-05 21:22 60.19062 11.08267 678 ft 30 kts 194°
2026-05-05 21:22 60.18852 11.08152 670 ft 33 kts 195°
2026-05-05 21:23 60.18627 11.08017 667 ft 34 kts 198°
2026-05-05 21:23 60.18539 11.07863 664 ft 13 kts 291°
2026-05-05 21:23 60.18563 11.07690 663 ft 2 kts 285°
2026-05-05 21:24 60.18564 11.07690 663 ft 0 kts 285°
2026-05-05 21:24 60.18568 11.07657 665 ft 5 kts 287°
2026-05-05 21:24 60.18586 11.07555 664 ft 12 kts 294°
2026-05-05 21:24 60.18661 11.07469 664 ft 14 kts
2026-05-05 21:25 60.18796 11.07541 666 ft 45 kts 15°
2026-05-05 21:25 60.19383 11.07873 670 ft 126 kts 16°
2026-05-05 21:25 60.20405 11.08475 912 ft 165 kts 16°
2026-05-05 21:25 60.21478 11.09168 1883 ft 161 kts 14°
2026-05-05 21:26 60.22549 11.09773 2806 ft 165 kts 12°
2026-05-05 21:26 60.23734 11.10400 3397 ft 183 kts 13°
2026-05-05 21:26 60.25033 11.11086 3926 ft 203 kts 10°
2026-05-05 21:26 60.26514 11.11284 4355 ft 226 kts 354°
2026-05-05 21:27 60.28117 11.10631 4936 ft 246 kts 337°
2026-05-05 21:27 60.29517 11.08526 5636 ft 258 kts 306°
2026-05-05 21:27 60.30245 11.05228 6600 ft 262 kts 281°
2026-05-05 21:27 60.30474 11.01630 7579 ft 263 kts 275°
2026-05-05 21:28 60.30648 10.97947 8602 ft 265 kts 276°
2026-05-05 21:28 60.30909 10.94244 9618 ft 267 kts 279°
2026-05-05 21:28 60.31261 10.90531 10437 ft 276 kts 281°
2026-05-05 21:28 60.31645 10.86570 10823 ft 298 kts 275°
2026-05-05 21:29 60.31466 10.82293 11219 ft 317 kts 254°
2026-05-05 21:29 60.30459 10.78323 12076 ft 322 kts 234°
2026-05-05 21:29 60.28767 10.75273 12875 ft 334 kts 216°
2026-05-05 21:29 60.26788 10.72775 13716 ft 338 kts 215°
2026-05-05 21:30 60.24773 10.70284 14522 ft 340 kts 216°
2026-05-05 21:30 60.22758 10.67798 15352 ft 341 kts 216°
2026-05-05 21:30 60.20738 10.65296 16158 ft 342 kts 217°
2026-05-05 21:30 60.18704 10.62781 16978 ft 344 kts 216°
2026-05-05 21:31 60.16537 10.60621 17738 ft 352 kts 208°
2026-05-05 21:31 60.14178 10.59108 18476 ft 361 kts 200°
2026-05-05 21:31 60.11677 10.58189 19113 ft 366 kts 197°
2026-05-05 21:31 60.09161 10.57351 19774 ft 368 kts 198°
2026-05-05 21:32 60.06627 10.56498 20413 ft 369 kts 200°
2026-05-05 21:32 60.04093 10.55576 21065 ft 372 kts 200°
2026-05-05 21:32 60.01535 10.54685 21641 ft 374 kts 200°
2026-05-05 21:32 59.98962 10.53805 22303 ft 376 kts 200°
2026-05-05 21:33 59.96375 10.52918 22918 ft 379 kts 200°
2026-05-05 21:33 59.93770 10.52020 23565 ft 381 kts 201°
2026-05-05 21:33 59.91150 10.51115 24075 ft 384 kts 200°
2026-05-05 21:33 59.88511 10.50201 24576 ft 386 kts 200°
2026-05-05 21:34 59.85853 10.49276 25052 ft 389 kts 200°
2026-05-05 21:34 59.83182 10.48352 25538 ft 391 kts 200°
2026-05-05 21:34 59.80488 10.47423 25989 ft 394 kts 200°
2026-05-05 21:34 59.77782 10.46490 26434 ft 396 kts 200°
2026-05-05 21:35 59.75054 10.45552 26829 ft 398 kts 200°
2026-05-05 21:35 59.72323 10.44613 27330 ft 399 kts 200°
2026-05-05 21:35 59.69580 10.43650 27688 ft 399 kts 201°
2026-05-05 21:35 59.66831 10.42647 28014 ft 404 kts 200°
2026-05-05 21:36 59.64050 10.41712 28419 ft 406 kts 199°
2026-05-05 21:36 59.61292 10.40804 28812 ft 408 kts 199°
2026-05-05 21:36 59.58486 10.39874 29175 ft 410 kts 199°
2026-05-05 21:36 59.55627 10.38917 29542 ft 413 kts 199°
2026-05-05 21:37 59.52823 10.37972 29899 ft 415 kts 200°
2026-05-05 21:37 59.49953 10.37003 30231 ft 417 kts 199°
2026-05-05 21:37 59.47086 10.36033 30461 ft 419 kts 199°
2026-05-05 21:37 59.44206 10.35058 30755 ft 421 kts 199°
2026-05-05 21:38 59.41341 10.34092 31060 ft 424 kts 199°
2026-05-05 21:38 59.38427 10.33113 31434 ft 424 kts 199°
2026-05-05 21:38 59.35519 10.32140 31839 ft 424 kts 199°
2026-05-05 21:38 59.32617 10.31171 32228 ft 423 kts 199°
2026-05-05 21:39 59.30690 10.30527 32491 ft 423 kts 199°
2026-05-05 21:39 59.27794 10.29560 32862 ft 422 kts 199°
2026-05-05 21:39 59.24897 10.28594 33218 ft 422 kts 199°
2026-05-05 21:39 59.22002 10.27631 33584 ft 422 kts 199°
2026-05-05 21:40 59.19111 10.26670 33875 ft 421 kts 198°
2026-05-05 21:40 59.16208 10.25826 34187 ft 425 kts 194°
2026-05-05 21:40 59.13248 10.25389 34414 ft 428 kts 192°
2026-05-05 21:40 59.10275 10.24998 34641 ft 429 kts 192°
2026-05-05 21:41 59.07291 10.24607 34863 ft 430 kts 192°
2026-05-05 21:41 59.04302 10.24211 35096 ft 431 kts 192°
2026-05-05 21:41 59.01397 10.23821 35295 ft 431 kts 192°
2026-05-05 21:41 58.98404 10.23392 35511 ft 430 kts 194°
2026-05-05 21:42 58.95460 10.22535 35716 ft 425 kts 199°
2026-05-05 21:42 58.92614 10.21111 35913 ft 420 kts 205°
2026-05-05 21:42 58.89891 10.19152 36089 ft 415 kts 210°
2026-05-05 21:42 58.87269 10.16839 36303 ft 415 kts 211°
2026-05-05 21:43 58.84634 10.14505 36460 ft 416 kts 211°
2026-05-05 21:43 58.81994 10.12186 36652 ft 417 kts 210°
2026-05-05 21:43 58.79347 10.09875 36829 ft 418 kts 210°
2026-05-05 21:43 58.76694 10.07569 37006 ft 419 kts 210°
2026-05-05 21:44 58.74032 10.05260 37180 ft 420 kts 210°
2026-05-05 21:44 58.71371 10.02957 37348 ft 420 kts 210°
2026-05-05 21:44 58.68732 10.00679 37503 ft 421 kts 210°
2026-05-05 21:44 58.66056 9.98374 37670 ft 422 kts 210°
2026-05-05 21:45 58.63380 9.96073 37812 ft 421 kts 210°
2026-05-05 21:45 58.60710 9.93782 38052 ft 420 kts 209°
2026-05-05 21:45 58.58035 9.91490 38188 ft 421 kts 209°
2026-05-05 21:45 58.55360 9.89201 38318 ft 422 kts 209°
2026-05-05 21:46 58.52679 9.86911 38479 ft 422 kts 209°
2026-05-05 21:46 58.49997 9.84624 38608 ft 422 kts 209°
2026-05-05 21:46 58.47312 9.82339 38724 ft 423 kts 209°
2026-05-05 21:46 58.44626 9.80057 38837 ft 423 kts 209°